Weather Roundup
Issued by NWS

Home | Current Version | Previous Version | Text Only | Print | Product List | Glossary On
Versions: 1 2 3 4 5 6 7 8 9 10 11 12 13 14 15 16 17 18 19 20 21 22 23 24 25 26 27 28 29 30 31 32 33 34 35 36 37 38 39 40 41 42 43 44 45 46 47 48 49 50
000
NZUS93 KARX 311310
HRRWXR

CURRENT HOURLY OBSERVATIONS ACROSS
MUCH OF THE UPPER MISSISSIPPI VALLEY
NATIONAL WEATHER SERVICE LA CROSSE WI
800 AM CDT TUE MAY 31 2016


...SOUTHEAST MINNESOTA...


CITY           SKY/WX    TMP DP  RH WIND       PRES   REMARKS
ROCHESTER      CLOUDY    64  57  78 S12       29.93S
ROCHESTER/MAYO PTSUNNY   65  56  72 SE8G16    29.93S
WINONA         CLOUDY    70  57  64 SE5       29.93R
AUSTIN         CLOUDY    63  57  82 S8        29.93R
ALBERT LEA     DRIZZLE   63  61  94 S7        29.91F
DODGE CENTER   CLOUDY    66  55  68 S18       29.92R
PRESTON        CLOUDY    64  56  77 S10       29.95S
OWATONNA       RAIN      63  59  88 S10       29.90F
FARIBAULT      CLOUDY    63  61  94 S7        29.91R
$$

...ELSEWHERE IN MINNESOTA...


CITY           SKY/WX    TMP DP  RH WIND       PRES   REMARKS
MINNEAPOLIS    CLOUDY    66  57  72 S12       29.87R
INTNL FALLS    LGT RAIN  49  45  86 E10       29.93F FOG
DULUTH         CLOUDY    47  41  80 E18G25    29.97R
RED WING       TSTM      63  59  88 N3        29.92R
REDWOOD FALLS  LGT RAIN  65  60  84 SW14      29.84R
MANKATO        CLOUDY    63  59  88 S6        29.87S
WORTHINGTON      N/A     61  59  93 W13       29.90R
FAIRMONT       CLOUDY    63  61  94 S9        29.88R
$$

...SOUTHWEST WISCONSIN...


CITY           SKY/WX    TMP DP  RH WIND       PRES   REMARKS
LA CROSSE      CLOUDY    68  59  73 S6        29.93R
PRAIRIE DU CHI SUNNY     66  60  80 E5        29.95R
BOSCOBEL       NOT AVBL
LONE ROCK      MOSUNNY   69  60  73 E9        29.96F
PLATTEVILLE    MOSUNNY   66  62  86 E12       29.97R
FORT MC COY    PTSUNNY   69  59  70 SE5       29.94S
CAMP DOUGLAS   PTSUNNY   64  64 100 SE7       29.95F
MAUSTON-NEW LI CLOUDY    65  60  84 SE7       29.95F
VIROQUA        FAIR      65  59  80 SE15      29.95S
WIS DELLS      SUNNY     71  54  54 SE9       29.97S
$$

...ELSEWHERE IN WISCONSIN...


CITY           SKY/WX    TMP DP  RH WIND       PRES   REMARKS
MILWAUKEE      MOSUNNY   70  55  59 NE9       30.03S
MADISON        PTSUNNY   70  55  59 SE10      29.98S
GREEN BAY      CLOUDY    57  48  72 NE14      30.07F
EAU CLAIRE     CLOUDY    66  57  72 S7        29.92R
BLACK RVR FLS  FAIR      68  57  69 SE5       29.93S
MEDFORD        CLOUDY    59  53  81 E5        29.97F
WAUSAU         MOSUNNY   58  50  75 E15       30.00S
WIS RAPIDS     CLOUDY    64  55  72 E15       29.99F
MARSHFIELD     PTSUNNY   62  54  74 E13       29.97F
RICE LAKE      CLOUDY    65  57  75 SE10      29.94R
$$

...NORTHEAST IOWA...


CITY           SKY/WX    TMP DP  RH WIND       PRES   REMARKS
WATERLOO       CLOUDY    67  60  78 S9        29.94S
DUBUQUE        CLOUDY    68  59  73 SE12      29.96S
DECORAH        PTSUNNY   64  59  82 S8        29.95R
MASON CITY     CLOUDY    63  60  90 S12       29.94R
CHARLES CITY   CLOUDY    63  61  94 S9        29.95F
OELWEIN        PTSUNNY   66  63  88 S13       29.97R
$$

...ELSEWHERE IN IOWA...


CITY           SKY/WX    TMP DP  RH WIND       PRES   REMARKS
DES MOINES     CLOUDY    67  59  75 S10       29.93F
IOWA CITY      CLOUDY    69  63  81 SW5       29.98S
FORT DODGE     MOSUNNY   66  61  82 S9G16     29.92S
MARSHALLTOWN   MOSUNNY   68  61  78 S14       29.94F
CEDAR RAPIDS   MOSUNNY   68  64  87 S8        29.97R
$$

...NORTHERN ILLINOIS...


CITY           SKY/WX    TMP DP  RH WIND       PRES   REMARKS
CHICAGO-OHARE  PTSUNNY   73  54  51 NE9       30.00S
CHICAGO-MIDWAY PTSUNNY   73  57  57 E9        30.00R
MOLINE         PTSUNNY   72  64  76 CALM      29.96S
ROCKFORD       CLOUDY    68  59  73 SE7       30.01R
PEORIA         CLOUDY    71  64  78 SE3       29.98S
$$

NOTE: "FAIR" INDICATES FEW OR NO CLOUDS BELOW 12,000 FEET WITH NO
SIGNIFICANT WEATHER AND/OR OBSTRUCTIONS TO VISIBILITY. WIND
SPEEDS ARE IN MILES-PER-HOUR.




USA.gov is the U.S. government's official web portal to all federal, state and local government web resources and services.